Regional Weather Roundup
Issued by NWS

Home | Current Version | Previous Version | Graphics & Text | Print | Product List | Glossary On
Versions: 1 2 3 4 5 6 7 8 9 10 11 12 13 14 15 16 17 18 19 20 21 22 23 24 25 26 27 28 29 30 31 32 33 34 35 36 37 38 39 40 41 42 43 44 45 46 47 48 49 50
000
ASUS45 KTFX 210104
RWRMT
MONTANA HOURLY WEATHER ROUNDUP
NATIONAL WEATHER SERVICE GREAT FALLS MT
704 PM MDT MON OCT 20 2014

NOTE: "FAIR" INDICATES FEW OR NO CLOUDS BELOW 12000 FEET WITH NO
SIGNIFICANT WEATHER AND/OR OBSTRUCTIONS TO VISIBILITY.

* THESE STATIONS ARE NOT UNDER NWS QUALITY CONTROL. THEY DO NOT
   REPORT WEATHER SUCH AS PRECIPITATION OR FOG.

MTZ001>007-043-210200-
WEST OF THE DIVIDE
CITY           SKY/WX    TMP DP  RH WIND       PRES   REMARKS
KALISPELL      CLOUDY    55  43  64 CALM      29.72S
MISSOULA       PTCLDY    61  39  44 CALM      29.72S
BUTTE          PTCLDY    59  32  36 S9        29.86F
MULLAN PASS    CLOUDY    48  36  63 NW6       29.85F
* ESSEX        N/A       51  42  71 N/A        N/A
* LINCOLN      N/A       67  32  27 SW1G10     N/A
* POLSON       N/A       58  41  53 N/A        N/A
* RONAN APT    PTCLDY    61  45  56 N/A        N/A
* SEELEY LAKE  N/A       63  36  37 N3         N/A
* THOMP F APT  CLOUDY    60  32  35 S6G14      N/A
$$

MTZ008-052>055-210200-
SOUTHWEST MONTANA
CITY           SKY/WX    TMP DP  RH WIND       PRES   REMARKS
BOZEMAN        PTCLDY    63  34  34 S10       29.84S
DILLON         PTCLDY    64  30  28 S16G25    29.85S
W YELLOWSTONE  PTCLDY    54  34  47 SE6       30.03S
* THREE FORKS  PTCLDY    68  39  35 N/A        N/A
* BOULDER HILL N/A       65  28  25 SW7        N/A
* MONIDA PASS  N/A       53  31  43 S8         N/A
* RAYNOLDS PAS N/A       54  35  49 SE11       N/A
* WHITEHALL    N/A       68  34  28 NE3        N/A
* WISE RIVER   N/A       65  30  27 S6         N/A
$$

MTZ009>010-012-014-046-048-049-054-210200-
EAST SLOPES AND CENTRAL MONTANA
CITY           SKY/WX    TMP DP  RH WIND       PRES   REMARKS
CUT BANK       PTCLDY    59  28  31 W8        29.73F
GREAT FALLS    CLEAR     63  34  34 S10       29.74F
HELENA         PTCLDY    72  32  23 S8        29.76R
* CONRAD       CLEAR     63  30  29 N/A        N/A
* DEARBORN     N/A       66  35  32 SE2        N/A
* EAST GLACIER N/A       64  28  26 W17        N/A
* MONARCH      N/A       64  25  23 S5G11      N/A
* PENDROY      N/A       59  28  31 W4         N/A
* ROGERS PASS  N/A       57  31  37 NW2        N/A
* SAINT MARY   N/A       63  28  27 S6G14      N/A
* SWEET GRASS  N/A       66  26  22 SW10       N/A
$$

MTZ011-013-016-021-035-040-045-047-050-051-210200-
NORTH CENTRAL MONTANA
CITY           SKY/WX    TMP DP  RH WIND       PRES   REMARKS
HAVRE          CLEAR     63  48  58 E3        29.71R
LEWISTOWN      CLEAR     61  36  39 S10       29.82F
* CHINOOK      CLEAR     63  48  58 E6        29.71S
* FORT BENTON  CLEAR     72  34  25 SE3       29.72S
* CHESTER      N/A       72  30  21 N/A        N/A
* DENTON       N/A       62  34  35 S10        N/A
* GEYSER       N/A       55  33  43 S11        N/A
* JUDITH GAP   N/A       62  31  31 SE7        N/A
* LOMA         N/A       73  32  22 N1         N/A
$$

MTZ017>020-022>027-061-062-210200-
NORTHEAST MONTANA
CITY           SKY/WX    TMP DP  RH WIND       PRES   REMARKS
GLASGOW        CLEAR     55  39  55 SE9       29.75F
GLENDIVE       CLEAR     68  39  35 SE5       29.84S
JORDAN         CLEAR     57  36  46 CALM      29.78S
SIDNEY         CLEAR     54  43  67 CALM      29.82F
WOLF POINT     CLEAR     57  41  55 E3        29.77S
* BEAVER HILL  N/A       65  42  43 SE16       N/A
* CIRCLE       N/A       71  39  31 N/A        N/A
* LINDSAY DVD  N/A       59  38  46 SE4        N/A
* NAVAJO       N/A       59  40  50 S6         N/A
* SACO         N/A       56  46  69 NE4        N/A
$$

MTZ028>042-056>058-210200-
SOUTHCENTRAL AND SOUTHEAST MONTANA
CITY           SKY/WX    TMP DP  RH WIND       PRES   REMARKS
BAKER          CLEAR     52  39  61 SE7       29.88S
BILLINGS       CLEAR     73  27  18 S3        29.84S
LIVINGSTON     PTCLDY    68  32  26 S13       29.85S
MILES CITY     CLEAR     66  37  34 NE6       29.82S
* LAUREL APT   CLEAR     63  27  26 N/A        N/A
* ROUNDUP APT  CLEAR     70  30  23 N/A        N/A
* ALZADA       N/A       64  46  52 NE8        N/A
* HYSHAM       N/A       64  29  27 NE1        N/A
* LAME DEER    N/A       67  31  26 E4         N/A
* REED POINT   N/A       63  29  28 N/A        N/A
* ROSCOE HILL  N/A       62  24  23 SE8        N/A
$$

REGIONAL REPORTS...DAKOTAS
CITY           SKY/WX    TMP DP  RH WIND       PRES   REMARKS
WILLISTON      CLEAR     55  41  59 CALM      29.82S
DICKINSON      CLEAR     61  41  48 SE12      29.88S
BEACH          N/A       52  39  61 SE9       29.87S
CROSBY         CLEAR     57  41  55 SE13      29.83S
TIOGA          CLEAR     57  41  55 SE10      29.88S
BISMARCK       CLEAR     54  34  47 E5        29.94S
GRAND FORKS    CLEAR     48  39  71 E6        30.03S
FARGO          CLEAR     48  39  71 E7        30.03S
BUFFALO SD     CLEAR     63  43  48 E9        29.84S
RAPID CITY     CLEAR     61  45  56 CALM      29.91S
$$

REGIONAL REPORTS...WYOMING/IDAHO/WASHINGTON
CITY           SKY/WX    TMP DP  RH WIND       PRES   REMARKS
GILLETTE       CLEAR     63  30  29 N/A       29.90S
SHERIDAN       CLEAR     57  34  42 CALM      29.88R
CODY           PTCLDY   N/A N/A N/A CALM      29.93S
YELLOWSTONE LA PTCLDY    50  34  54 CALM      30.13F
SALMON         MOCLDY    61  39  44 CALM      29.74S
MULLAN PASS    CLOUDY    48  36  63 NW6       29.85S
SAND POINT     CLOUDY    55  50  83 CALM      29.73S
SPOKANE        CLOUDY    64  45  50 SW7       29.73F

$$




USA.gov is the U.S. government's official web portal to all federal, state and local government web resources and services.